Weather History for Chignik, AK

Change the Weather History Date:

Sunday, August 18, 2013

  Actual Average Record
Temperature  
Mean Temperature 55 °F -  
Max Temperature 59 °F 56 °F 64 °F (2005)
Min Temperature 51 °F 48 °F 46 °F (1999)
Degree Days  
Heating Degree Days 10    
Growing Degree Days 5 (Base 50)    
Moisture  
Dew Point 45 °F    
Average Humidity 70    
Maximum Humidity 77    
Minimum Humidity 62    
Precipitation  
Precipitation 0.00 in - - ()
Sea Level Pressure  
Sea Level Pressure 29.75 in    
Wind  
Wind Speed 17 mph (West)    
Max Wind Speed 26 mph    
Max Gust Speed 37 mph    
Visibility 10 miles    
Events      
Averages and records for this station are not official NWS values.
T = Trace of Precipitation, MM = Missing Value Source: NWS Daily Summary

Daily Weather History Graph

Daily Weather History Graph

Search for Another Location

Airport:

Trip Planner

Search our weather history database for the weather conditions in past years. The results will help you decide how hot, cold, wet, or windy it might be!

Date:

Astronomy

Aug. 18, 2013 Rise Set
Actual Time 7:10 AM AKDT 10:02 PM AKDT
Civil Twilight 6:27 AM AKDT 10:45 PM AKDT
Nautical Twilight 5:30 AM AKDT 11:41 PM AKDT
Astronomical Twilight 4:11 AM AKDT 12:58 AM AKDT
Moon 8:26 PM AKDT (8/18) 4:17 AM AKDT (8/18)
Length of Visible Light 16h 18m
Length of Day
14h 52m
Waxing Gibbous, 93% of the Moon is Illuminated
Aug 18
Waxing Gibbous
Aug 20
Full
Aug 28
Last Quarter
Sep 5
New
Sep 12
First Quarter

Hourly Weather History & Observations

Time (AKDT) Temp. Dew Point Humidity Pressure Visibility Wind Dir Wind Speed Gust Speed Precip Events Conditions
12:16 AM 57.2 °F 48.2 °F 72% 29.60 in 10.0 mi West 15.0 mph 19.6 mph N/A   Overcast
12:36 AM 57.2 °F 48.2 °F 72% 29.61 in 10.0 mi WNW 12.7 mph 17.3 mph N/A   Mostly Cloudy
12:56 AM 57.2 °F 48.2 °F 72% 29.62 in 10.0 mi West 10.4 mph - N/A   Mostly Cloudy
1:16 AM 59.0 °F 48.2 °F 67% 29.62 in 10.0 mi NNW 12.7 mph - N/A   Mostly Cloudy
1:36 AM 59.0 °F 48.2 °F 67% 29.62 in 10.0 mi West 13.8 mph 17.3 mph N/A   Mostly Cloudy
1:56 AM 57.2 °F 48.2 °F 72% 29.63 in 10.0 mi West 11.5 mph 20.7 mph N/A   Mostly Cloudy
2:16 AM 57.2 °F 48.2 °F 72% 29.63 in 10.0 mi West 19.6 mph 27.6 mph N/A   Mostly Cloudy
2:36 AM 57.2 °F 48.2 °F 72% 29.63 in 10.0 mi West 16.1 mph 25.3 mph N/A   Mostly Cloudy
2:56 AM 57.2 °F 48.2 °F 72% 29.64 in 10.0 mi West 15.0 mph 25.3 mph N/A   Mostly Cloudy
3:16 AM 59.0 °F 48.2 °F 67% 29.64 in 10.0 mi West 13.8 mph 23.0 mph N/A   Overcast
3:36 AM 57.2 °F 48.2 °F 72% 29.64 in 10.0 mi West 16.1 mph 21.9 mph N/A   Overcast
3:56 AM 57.2 °F 48.2 °F 72% 29.65 in 10.0 mi West 15.0 mph 20.7 mph N/A   Overcast
4:16 AM 57.2 °F 48.2 °F 72% 29.65 in 10.0 mi West 18.4 mph 23.0 mph N/A   Overcast
4:36 AM 57.2 °F 48.2 °F 72% 29.66 in 10.0 mi WSW 19.6 mph 23.0 mph N/A   Overcast
4:56 AM 57.2 °F 48.2 °F 72% 29.66 in 10.0 mi WSW 20.7 mph 27.6 mph N/A   Overcast
5:16 AM 57.2 °F 48.2 °F 72% 29.66 in 10.0 mi WSW 15.0 mph 24.2 mph N/A   Overcast
5:36 AM 55.4 °F 48.2 °F 77% 29.67 in 10.0 mi West 20.7 mph 29.9 mph N/A   Overcast
5:56 AM 55.4 °F 48.2 °F 77% 29.67 in 10.0 mi West 16.1 mph 23.0 mph N/A   Overcast
6:16 AM 55.4 °F 48.2 °F 77% 29.68 in 10.0 mi West 19.6 mph 26.5 mph N/A   Overcast
6:36 AM 55.4 °F 48.2 °F 77% 29.68 in 10.0 mi West 17.3 mph 21.9 mph N/A   Mostly Cloudy
6:56 AM 55.4 °F 48.2 °F 77% 29.68 in 10.0 mi West 16.1 mph 25.3 mph N/A   Mostly Cloudy
7:16 AM 55.4 °F 48.2 °F 77% 29.69 in 10.0 mi West 18.4 mph 26.5 mph N/A   Mostly Cloudy
7:36 AM 55.4 °F 48.2 °F 77% 29.69 in 10.0 mi West 20.7 mph 29.9 mph N/A   Mostly Cloudy
7:56 AM 55.4 °F 48.2 °F 77% 29.69 in 10.0 mi WSW 24.2 mph 29.9 mph N/A   Scattered Clouds
8:16 AM 55.4 °F 48.2 °F 77% 29.71 in 10.0 mi West 17.3 mph 28.8 mph N/A   Mostly Cloudy
8:36 AM 55.4 °F 48.2 °F 77% 29.71 in 10.0 mi West 20.7 mph 28.8 mph N/A   Overcast
8:56 AM 55.4 °F 48.2 °F 77% 29.71 in 10.0 mi West 18.4 mph 31.1 mph N/A   Overcast
9:16 AM 55.4 °F 48.2 °F 77% 29.72 in 10.0 mi West 20.7 mph 31.1 mph N/A   Overcast
9:36 AM 55.4 °F 48.2 °F 77% 29.73 in 10.0 mi West 16.1 mph 27.6 mph N/A   Overcast
9:56 AM 55.4 °F 48.2 °F 77% 29.73 in 10.0 mi WSW 21.9 mph 32.2 mph N/A   Overcast
10:16 AM 55.4 °F 46.4 °F 72% 29.74 in 10.0 mi West 17.3 mph 27.6 mph N/A   Overcast
10:36 AM 55.4 °F 46.4 °F 72% 29.74 in 10.0 mi West 20.7 mph 33.4 mph N/A   Overcast
10:56 AM 55.4 °F 46.4 °F 72% 29.75 in 10.0 mi WSW 21.9 mph 31.1 mph N/A   Overcast
11:16 AM 55.4 °F 46.4 °F 72% 29.76 in 10.0 mi WSW 24.2 mph 32.2 mph N/A   Overcast
11:36 AM 55.4 °F 46.4 °F 72% 29.77 in 10.0 mi West 20.7 mph 33.4 mph N/A   Overcast
11:56 AM 55.4 °F 46.4 °F 72% 29.77 in 10.0 mi WSW 19.6 mph 29.9 mph N/A   Overcast
12:16 PM 53.6 °F 46.4 °F 77% 29.78 in 10.0 mi West 26.5 mph 34.5 mph N/A   Overcast
12:36 PM 53.6 °F 44.6 °F 72% 29.79 in 10.0 mi West 17.3 mph 31.1 mph N/A   Overcast
12:56 PM 53.6 °F 44.6 °F 72% 29.80 in 10.0 mi West 23.0 mph 31.1 mph N/A   Overcast
1:16 PM 53.6 °F 44.6 °F 72% 29.80 in 10.0 mi WSW 17.3 mph 23.0 mph N/A   Overcast
1:36 PM 53.6 °F 44.6 °F 72% 29.80 in 10.0 mi WSW 21.9 mph 28.8 mph N/A   Overcast
1:56 PM 53.6 °F 44.6 °F 72% 29.81 in 10.0 mi West 17.3 mph 28.8 mph N/A   Overcast
2:16 PM 53.6 °F 44.6 °F 72% 29.80 in 10.0 mi West 21.9 mph 36.8 mph N/A   Overcast
2:36 PM 53.6 °F 44.6 °F 72% 29.81 in 10.0 mi West 15.0 mph 26.5 mph N/A   Overcast
2:56 PM 55.4 °F 44.6 °F 67% 29.81 in 10.0 mi WNW 16.1 mph 23.0 mph N/A   Mostly Cloudy
3:16 PM 55.4 °F 44.6 °F 67% 29.82 in 10.0 mi NW 13.8 mph 25.3 mph N/A   Scattered Clouds
3:36 PM 55.4 °F 44.6 °F 67% 29.81 in 10.0 mi NW 15.0 mph 24.2 mph N/A   Mostly Cloudy
3:56 PM 55.4 °F 42.8 °F 63% 29.82 in 10.0 mi NW 11.5 mph 20.7 mph N/A   Mostly Cloudy
4:16 PM 55.4 °F 42.8 °F 63% 29.82 in 10.0 mi NW 11.5 mph 24.2 mph N/A   Overcast
4:36 PM 55.4 °F 42.8 °F 63% 29.81 in 10.0 mi NW 16.1 mph 26.5 mph N/A   Partly Cloudy
4:56 PM 55.4 °F 42.8 °F 63% 29.81 in 10.0 mi West 20.7 mph 33.4 mph N/A   Clear
5:16 PM 55.4 °F 42.8 °F 63% 29.80 in 10.0 mi West 17.3 mph 27.6 mph N/A   Clear
5:36 PM 55.4 °F 42.8 °F 63% 29.81 in 10.0 mi West 21.9 mph 33.4 mph N/A   Clear
5:56 PM 55.4 °F 42.8 °F 63% 29.81 in 10.0 mi West 18.4 mph 31.1 mph N/A   Clear
6:16 PM 55.4 °F 42.8 °F 63% 29.81 in 10.0 mi West 19.6 mph 27.6 mph N/A   Clear
6:36 PM 55.4 °F 42.8 °F 63% 29.81 in 10.0 mi West 24.2 mph 32.2 mph N/A   Clear
6:56 PM 53.6 °F 42.8 °F 67% 29.82 in 10.0 mi West 15.0 mph 28.8 mph N/A   Clear
7:16 PM 55.4 °F 42.8 °F 63% 29.82 in 10.0 mi West 12.7 mph 20.7 mph N/A   Partly Cloudy
7:36 PM 53.6 °F 42.8 °F 67% 29.83 in 10.0 mi West 17.3 mph 21.9 mph N/A   Partly Cloudy
7:56 PM 53.6 °F 42.8 °F 67% 29.83 in 10.0 mi West 12.7 mph 20.7 mph N/A   Clear
8:16 PM 53.6 °F 42.8 °F 67% 29.83 in 10.0 mi West 19.6 mph 24.2 mph N/A   Clear
8:36 PM 53.6 °F 42.8 °F 67% 29.84 in 10.0 mi West 19.6 mph 26.5 mph N/A   Clear
8:56 PM 51.8 °F 42.8 °F 71% 29.84 in 10.0 mi West 19.6 mph 23.0 mph N/A   Clear
9:16 PM 51.8 °F 41.0 °F 67% 29.85 in 10.0 mi West 13.8 mph 20.7 mph N/A   Clear
9:36 PM 51.8 °F 41.0 °F 67% 29.84 in 10.0 mi West 13.8 mph 19.6 mph N/A   Clear
9:56 PM 51.8 °F 39.2 °F 62% 29.84 in 10.0 mi West 15.0 mph 25.3 mph N/A   Clear
10:16 PM 51.8 °F 39.2 °F 62% 29.85 in 10.0 mi West 12.7 mph 29.9 mph N/A   Clear
10:36 PM 51.8 °F 41.0 °F 67% 29.85 in 10.0 mi West 15.0 mph - N/A   Clear
10:56 PM 51.8 °F 39.2 °F 62% 29.85 in 10.0 mi West 18.4 mph 23.0 mph N/A   Clear
11:16 PM 51.8 °F 41.0 °F 67% 29.86 in 10.0 mi West 13.8 mph 23.0 mph N/A   Clear
11:36 PM 51.8 °F 42.8 °F 71% 29.86 in 10.0 mi West 16.1 mph 24.2 mph N/A   Clear
11:56 PM 51.8 °F 42.8 °F 71% 29.86 in 10.0 mi West 15.0 mph 21.9 mph N/A   Clear